When you browse on this site, cookies collect data to enhance your experience and personalize the content and advertising you see.
Visit our Privacy Policy to learn more. By continuing to use the site, you agree to this use of cookies and data.
  • In United Kingdom
  • List of Countries
  • For 7 days
  • Water Temperature
  • Satellite Maps
  • Weather Map
  • Weather Widgets
  • user-avatar
    Login

    Hourly Weather El Quseir

    Today, 21 May, Tuesday

    Time Temperature Precipitation Wind Pressure Humidity
    00:00 +32°C° 0 mm 5 mps 757 mmHg 22%
    01:00 +30°C° 0 mm 6 mps 757 mmHg 24%
    02:00 +30°C° 0 mm 7 mps 756 mmHg 27%
    03:00 +30°C° 0 mm 7 mps 757 mmHg 29%
    04:00 +29°C° 0 mm 7 mps 757 mmHg 31%
    05:00 +29°C° 0 mm 7 mps 757 mmHg 33%
    06:00 +32°C° 0 mm 7 mps 757 mmHg 28%
    07:00 +34°C° 0 mm 7 mps 758 mmHg 24%
    08:00 +36°C° 0 mm 7 mps 758 mmHg 20%
    09:00 +38°C° 0 mm 7 mps 758 mmHg 19%
    10:00 +39°C° 0 mm 7 mps 758 mmHg 17%
    11:00 +40°C° 0 mm 6 mps 758 mmHg 16%
    12:00 +40°C° 0 mm 6 mps 758 mmHg 15%
    13:00 +40°C° 0 mm 5 mps 757 mmHg 15%
    14:00 +41°C° 0 mm 5 mps 757 mmHg 14%
    15:00 +40°C° 0 mm 4 mps 757 mmHg 14%
    16:00 +40°C° 0 mm 4 mps 757 mmHg 14%
    17:00 +39°C° 0 mm 3 mps 756 mmHg 14%
    18:00 +38°C° 0 mm 3 mps 757 mmHg 15%
    19:00 +37°C° 0 mm 4 mps 757 mmHg 15%
    20:00 +35°C° 0 mm 4 mps 757 mmHg 16%
    21:00 +35°C° 0 mm 3 mps 757 mmHg 15%
    22:00 +34°C° 0 mm 3 mps 758 mmHg 15%
    23:00 +34°C° 0 mm 3 mps 758 mmHg 15%

    Tomorrow, 22 May, Wednesday

    Time Temperature Precipitation Wind Pressure Humidity
    00:00 +33°C° 0 mm 3 mps 758 mmHg 15%
    01:00 +33°C° 0 mm 3 mps 758 mmHg 16%
    02:00 +32°C° 0 mm 4 mps 757 mmHg 17%
    03:00 +32°C° 0 mm 4 mps 757 mmHg 16%
    04:00 +32°C° 0 mm 4 mps 757 mmHg 15%
    05:00 +32°C° 0 mm 5 mps 757 mmHg 15%
    06:00 +34°C° 0 mm 5 mps 758 mmHg 14%
    07:00 +36°C° 0 mm 6 mps 758 mmHg 14%
    08:00 +40°C° 0 mm 6 mps 758 mmHg 13%
    09:00 +40°C° 0 mm 6 mps 758 mmHg 13%
    10:00 +41°C° 0 mm 6 mps 758 mmHg 14%
    11:00 +42°C° 0 mm 6 mps 758 mmHg 14%
    12:00 +42°C° 0 mm 5 mps 758 mmHg 13%
    13:00 +43°C° 0 mm 5 mps 757 mmHg 12%
    14:00 +43°C° 0 mm 4 mps 757 mmHg 12%
    15:00 +43°C° 0 mm 4 mps 757 mmHg 11%
    16:00 +43°C° 0 mm 3 mps 756 mmHg 11%
    17:00 +42°C° 0 mm 3 mps 756 mmHg 11%
    18:00 +40°C° 0 mm 3 mps 756 mmHg 11%
    19:00 +39°C° 0 mm 3 mps 756 mmHg 12%
    20:00 +38°C° 0 mm 4 mps 756 mmHg 12%
    21:00 +38°C° 0 mm 4 mps 757 mmHg 12%
    22:00 +37°C° 0 mm 4 mps 757 mmHg 12%
    23:00 +37°C° 0 mm 4 mps 757 mmHg 11%

    Day after tomorrow, 23 May, Thursday

    Time Temperature Precipitation Wind Pressure Humidity
    00:00 +36°C° 0 mm 5 mps 757 mmHg 12%
    01:00 +36°C° 0 mm 5 mps 756 mmHg 13%
    02:00 +35°C° 0 mm 5 mps 756 mmHg 14%
    03:00 +35°C° 0 mm 5 mps 756 mmHg 14%
    04:00 +35°C° 0 mm 6 mps 756 mmHg 14%
    05:00 +35°C° 0 mm 6 mps 756 mmHg 14%
    06:00 +37°C° 0 mm 5 mps 757 mmHg 14%
    07:00 +39°C° 0 mm 5 mps 757 mmHg 13%
    08:00 +41°C° 0 mm 5 mps 757 mmHg 13%
    09:00 +41°C° 0 mm 5 mps 757 mmHg 12%
    10:00 +42°C° 0 mm 4 mps 757 mmHg 12%
    11:00 +43°C° 0 mm 4 mps 757 mmHg 12%
    12:00 +43°C° 0 mm 4 mps 756 mmHg 11%
    13:00 +44°C° 0 mm 4 mps 756 mmHg 11%
    14:00 +44°C° 0 mm 4 mps 755 mmHg 10%
    15:00 +44°C° 0 mm 3 mps 755 mmHg 10%
    16:00 +44°C° 0 mm 3 mps 755 mmHg 10%
    17:00 +44°C° 0 mm 3 mps 754 mmHg 10%
    18:00 +42°C° 0 mm 3 mps 754 mmHg 10%
    19:00 +40°C° 0 mm 3 mps 755 mmHg 11%
    20:00 +39°C° 0 mm 3 mps 755 mmHg 12%
    21:00 +38°C° 0 mm 2 mps 755 mmHg 12%
    22:00 +37°C° 0 mm 2 mps 755 mmHg 12%
    23:00 +36°C° 0 mm 1 mps 755 mmHg 12%

    24 May, Friday

    Time Temperature Precipitation Wind Pressure Humidity
    00:00 +35°C° 0 mm 1 mps 755 mmHg 13%
    01:00 +34°C° 0 mm 1 mps 755 mmHg 14%
    02:00 +31°C° 0 mm 0 mps 754 mmHg 15%
    03:00 +31°C° 0 mm 0 mps 754 mmHg 15%
    04:00 +33°C° 0 mm 1 mps 755 mmHg 16%
    05:00 +32°C° 0 mm 1 mps 755 mmHg 16%
    06:00 +35°C° 0 mm 1 mps 755 mmHg 14%
    07:00 +38°C° 0 mm 2 mps 756 mmHg 13%
    08:00 +41°C° 0 mm 2 mps 756 mmHg 11%
    09:00 +42°C° 0 mm 2 mps 756 mmHg 10%
    10:00 +43°C° 0 mm 2 mps 756 mmHg 10%
    11:00 +44°C° 0 mm 1 mps 756 mmHg 9%
    12:00 +45°C° 0 mm 2 mps 756 mmHg 10%
    13:00 +45°C° 0 mm 4 mps 755 mmHg 11%
    14:00 +46°C° 0 mm 5 mps 755 mmHg 12%
    15:00 +44°C° 0 mm 4 mps 755 mmHg 13%
    16:00 +43°C° 0 mm 4 mps 755 mmHg 15%
    17:00 +42°C° 0 mm 4 mps 754 mmHg 16%
    18:00 +40°C° 0 mm 3 mps 755 mmHg 18%
    19:00 +39°C° 0 mm 3 mps 755 mmHg 20%
    20:00 +38°C° 0 mm 2 mps 755 mmHg 22%
    21:00 +37°C° 0 mm 2 mps 756 mmHg 21%
    22:00 +37°C° 0 mm 2 mps 756 mmHg 20%
    23:00 +36°C° 0 mm 2 mps 756 mmHg 19%

    25 May, Saturday

    Time Temperature Precipitation Wind Pressure Humidity
    00:00 +35°C° 0 mm 3 mps 756 mmHg 25%
    01:00 +35°C° 0 mm 4 mps 755 mmHg 30%
    02:00 +34°C° 0 mm 5 mps 755 mmHg 36%
    03:00 +33°C° 0 mm 4 mps 755 mmHg 35%
    04:00 +33°C° 0 mm 3 mps 755 mmHg 33%
    05:00 +32°C° 0 mm 2 mps 755 mmHg 32%
    06:00 +35°C° 0 mm 2 mps 756 mmHg 30%
    07:00 +36°C° 0 mm 2 mps 756 mmHg 27%
    08:00 +38°C° 0 mm 3 mps 757 mmHg 25%
    09:00 +39°C° 0 mm 3 mps 757 mmHg 24%
    10:00 +42°C° 0 mm 3 mps 757 mmHg 24%
    11:00 +43°C° 0 mm 3 mps 757 mmHg 23%
    12:00 +42°C° 0 mm 3 mps 756 mmHg 26%
    13:00 +42°C° 0 mm 3 mps 756 mmHg 29%
    14:00 +40°C° 0 mm 3 mps 755 mmHg 31%
    15:00 +40°C° 0 mm 3 mps 755 mmHg 33%
    16:00 +39°C° 0 mm 3 mps 755 mmHg 34%
    17:00 +38°C° 0 mm 2 mps 755 mmHg 35%
    18:00 +38°C° 0 mm 2 mps 755 mmHg 36%
    19:00 +36°C° 0 mm 1 mps 755 mmHg 36%
    20:00 +36°C° 0 mm 1 mps 755 mmHg 36%
    21:00 +35°C° 0 mm 1 mps 755 mmHg 40%
    22:00 +34°C° 0 mm 1 mps 755 mmHg 44%
    23:00 +34°C° 0 mm 2 mps 755 mmHg 47%

    26 May, Sunday

    Time Temperature Precipitation Wind Pressure Humidity
    00:00 +34°C° 0 mm 3 mps 755 mmHg 45%
    01:00 +34°C° 0 mm 3 mps 755 mmHg 42%
    02:00 +34°C° 0 mm 4 mps 755 mmHg 40%
    03:00 +34°C° 0 mm 5 mps 755 mmHg 39%
    04:00 +33°C° 0 mm 5 mps 755 mmHg 38%
    05:00 +33°C° 0 mm 5 mps 755 mmHg 37%
    06:00 +34°C° 0 mm 6 mps 755 mmHg 34%
    07:00 +35°C° 0 mm 6 mps 756 mmHg 31%
    08:00 +36°C° 0 mm 7 mps 756 mmHg 28%
    09:00 +39°C° 0 mm 6 mps 756 mmHg 25%
    10:00 +41°C° 0 mm 5 mps 755 mmHg 22%
    11:00 +42°C° 0 mm 5 mps 755 mmHg 20%
    12:00 +42°C° 0 mm 5 mps 755 mmHg 20%
    13:00 +43°C° 0 mm 4 mps 754 mmHg 20%
    14:00 +43°C° 0 mm 4 mps 753 mmHg 20%
    15:00 +42°C° 0 mm 3 mps 753 mmHg 22%
    16:00 +40°C° 0 mm 3 mps 753 mmHg 24%
    17:00 +39°C° 0 mm 3 mps 753 mmHg 26%
    18:00 +38°C° 0 mm 3 mps 753 mmHg 27%
    19:00 +38°C° 0 mm 3 mps 754 mmHg 29%
    20:00 +37°C° 0 mm 3 mps 754 mmHg 31%
    21:00 +36°C° 0 mm 3 mps 754 mmHg 31%
    22:00 +36°C° 0 mm 4 mps 754 mmHg 30%
    23:00 +36°C° 0 mm 5 mps 754 mmHg 30%
    Show more